Notices

What's New in latest Release from April 7th, 2021:

- Updated Glossary, including Speed of Maximum Gust, and Total Hourly Precipitation

- Updated national and regional climate services offices contacts and prices information

- Addition of station inventory lists for 1981-2010, 1971-2000, and 1961-1990 Normals.

If you haven't already, please take our survey and provide feedback about our website: https://eccc.sondage-survey.ca/f/LanguageSelection.aspx?s=442ca660-fcf1-47c0-95a9-59707d6fd709

Hourly Data Report for January 20, 2021

EDMUNDSTON
NEW BRUNSWICK
Current Station Operator: ECCC - MSC

47°25'00.000" N
68°19'28.040" W
154.20 m
8101303
71590
ERM

Download Data

Hourly Data (January 2021)
Hourly Data Report for January 20, 2021
TIME
LST
Temp Definition
°C
Dew Point Definition
°C
Rel Hum Definition
%
Precip. Amount Definition
mm

Wind Dir Definition
10's deg

Wind Spd Definition
km/h
Visibility Definition
km
Stn Press Definition
kPa
Hmdx Definition


Wind Chill Definition


Weather Definition


00:00 -23.2 -25.4 82 0.0 32 3   99.39   -26 LegendNANA
01:00 -23.3 -25.7 81 0.0 27 3   99.37   -26 LegendNANA
02:00 -23.9 -26.1 82 0.0 33 3   99.33   -27 LegendNANA
03:00 -25.1 -27.6 80 0.2 27 5   99.34   -30 LegendNANA
04:00 -22.0 -24.4 81 0.0 28 5   99.30   -27 LegendNANA
05:00 -21.8 -24.3 80 0.0 31 3   99.22   -25 LegendNANA
06:00 -22.6 -24.9 81 0.0 32 4   99.22   -26 LegendNANA
07:00 -21.1 -23.5 81 0.0 27 2   99.22   -23 LegendNANA
08:00 -20.7 -23.2 81 0.0 0 1   99.25   -22 LegendNANA
09:00 -18.9 -21.3 82 0.0 29 2   99.29   -21 LegendNANA
10:00 -16.1 -19.0 79 0.0 27 6   99.26   -21 LegendNANA
11:00 -14.2 -18.2 71 0.0 26 9   99.23   -20 LegendNANA
12:00 -12.6 -17.8 65 0.0 29 10   99.16   -18 LegendNANA
13:00 -11.6 -17.2 63 0.0 27 12   99.08   -18 LegendNANA
14:00 -11.3 -17.4 61 0.0 28 9   99.04   -16 LegendNANA
15:00 -10.4 -16.9 59 0.0 28 10   99.04   -16 LegendNANA
16:00 -10.4 -18.7 51 0.0 32 11   99.06   -16 LegendNANA
17:00 -11.7 -17.5 62 0.0 29 8   99.11   -16 LegendNANA
18:00 -14.6 -17.3 80 0.0 29 4   99.16   -17 LegendNANA
19:00 -18.3 -20.2 85 0.0 31 5   99.23   -22 LegendNANA
20:00 -19.2 -21.0 86 0.0 33 7   99.21   -25 LegendNANA
21:00 -20.9 -23.1 82 0.0 34 3   99.22   -24 LegendNANA
22:00 -21.5 -23.4 85 0.0 32 1   99.20   -22 LegendNANA
23:00 -22.9 -25.0 83 0.0 31 4   99.21   -27 LegendNANA

Notes on Data Quality.

Legend

  • E = Estimated
  • M = Missing
  • NA = Not Available*
  • [empty] = Indicates an unobserved value
Date modified: